• Processing (Info)

  • MPEC 2023-H226 : 2023 HJ6

    The following Minor Planet Electronic Circular may be linked-to from your own Web pages, but must not otherwise be redistributed electronically.

    A form allowing access to any MPEC is at the bottom of this page.


    Read MPEC 2023-H225 Read MPEC 2023-H227


    M.P.E.C. 2023-H226                               Issued 2023 April 28, 05:49 UT
    
         The Minor Planet Electronic Circulars contain information on unusual
             minor planets, routine data on comets and natural satellites,
             and occasional editorial announcements.  They are published
        on behalf of Division F of the International Astronomical Union by the
              Minor Planet Center, Smithsonian Astrophysical Observatory,
                              Cambridge, MA 02138, U.S.A.
    			  
                 Prepared using the Tamkin Foundation Computer Network
    
                                  MPC@CFA.HARVARD.EDU
                URL https://www.minorplanetcenter.net/    ISSN 1523-6714
    
                                    2023 HJ6                                 
    
    
    Observations:
         K23H06J  C2023 04 18.47466 17 09 41.73 +06 04 24.5          20.9 GVEH226G96
         K23H06J  C2023 04 18.48513 17 09 43.99 +06 05 37.8          21.3 GVEH226G96
         K23H06J*1C2023 04 26.42934517 41 23.856+22 02 19.39         20.89GVEH226G96
         K23H06J 1C2023 04 26.43457117 41 25.026+22 02 57.52         20.33GVEH226G96
         K23H06J 1C2023 04 26.44501117 41 27.424+22 04 13.58         20.73GVEH226G96
         K23H06J KC2023 04 26.46663917 41 32.359+22 06 49.28         21.29GVEH226I52
         K23H06J KC2023 04 26.46763717 41 32.586+22 06 56.52         20.73GVEH226I52
         K23H06J KC2023 04 26.46864517 41 32.824+22 07 03.43         21.17GVEH226I52
         K23H06J KC2023 04 26.46964517 41 33.068+22 07 10.99         21.01GVEH226I52
         K23H06J hC2023 04 27.07542417 44 04.37 +23 19 38.4          21.2 GVEH226L01
         K23H06J hC2023 04 27.07732117 44 04.82 +23 19 52.5          21.2 GVEH226L01
         K23H06J hC2023 04 27.07879817 44 05.20 +23 20 02.5          21.0 GVEH226L01
         K23H06J hC2023 04 27.08048417 44 05.63 +23 20 15.1          21.4 GVEH226L01
         K23H06J KC2023 04 27.41998917 45 30.640+24 00 54.79         21.62GVEH226I52
         K23H06J KC2023 04 27.42136817 45 30.964+24 01 04.66         21.20GVEH226I52
         K23H06J KC2023 04 27.42274817 45 31.255+24 01 14.52         20.78GVEH226I52
         K23H06J  C2023 04 27.42293517 45 31.104+24 01 14.66         20.9 GVEH226H01
         K23H06J KC2023 04 27.42412617 45 31.601+24 01 24.24         21.50GVEH226I52
         K23H06J  C2023 04 27.42814417 45 32.304+24 01 51.89         20.8 GVEH226H01
         K23H06J  C2023 04 27.43787617 45 34.547+24 03 01.37         20.9 GVEH226H01
         K23H06J  C2023 04 27.44649317 45 36.540+24 04 02.85         21.1 GVEH226H01
    
    Observer details:
    G96 Mt. Lemmon Survey.  Observers J. K. Hogan, J. B. Fazekas.  Measurers B.
        Gray, D. Rankin, F. C. Shelly, E. J. Christensen, D. Fay, J. B. Fazekas,
        D. C. Fuls, A. R. Gibbs, A. D. Grauer, H. Groeller, J. K. Hogan, R. A.
        Kowalski, S. M. Larson, G. J. Leonard, R. L. Seaman, A. Serrano, K. W.
        Wierzchos.  1.5-m reflector + 10K CCD.
    H01 Magdalena Ridge Observatory, Socorro.  Observers W. H. Ryan, E. V. Ryan.
        Measurer W. H. Ryan.  2.4-m f/8.9 Ritchey-Chretien + CCD.
    I52 Steward Observatory, Mt. Lemmon Station.  Observer A. Serrano.  Measurers
        E. J. Christensen, D. Fay, J. B. Fazekas, D. C. Fuls, A. R. Gibbs, A. D.
        Grauer, H. Groeller, J. K. Hogan, R. A. Kowalski, S. M. Larson, G. J.
        Leonard, D. Rankin, R. L. Seaman, A. Serrano, F. C. Shelly, K. W.
        Wierzchos.  1.0-m prime focus + CCD.
    L01 Visnjan Observatory, Tican.  Observer K. Korlevic.  1.0-m f/2.9 reflector
        + CCD.
    
    Orbital elements:
    2023 HJ6                                                 Earth MOID = 0.0784 AU
    Epoch 2023 Feb. 25.0 TT = JDT 2460000.5                 Bell                    
    M 251.10808              (2000.0)            P               Q                  
    n   0.78336964     Peri.  102.27780     +0.51607442     +0.85002636             
    a   1.1654444      Node   199.89316     -0.85556935     +0.50569373             
    e   0.1741447      Incl.   18.05566     -0.04084458     +0.14740774             
    P   1.26           H   22.91          G   0.15           U   9                  
    Residuals in seconds of arc
    230418 G96  0.1-  0.2-    230426 I52  0.0   0.1-    230427 I52  0.3+  0.1+
    230418 G96  0.1+  0.2+    230426 I52  0.3+  0.2+    230427 I52  0.1-  0.0
    230426 G96  0.3+  0.4-    230427 L01  1.2-  0.1+    230427 H01  0.0   0.0
    230426 G96  0.0   0.1-    230427 L01  1.1-  0.6+    230427 I52  0.3+  0.1-
    230426 G96  0.1+  0.5+    230427 L01  0.6-  0.0     230427 H01  0.1-  0.0
    230426 I52  0.0   0.2+    230427 L01  0.1-  0.5+    230427 H01  0.2-  0.1-
    230426 I52  0.1-  0.2+    230427 I52  0.2+  0.1+    230427 H01  0.1-  0.1-
    
    Ephemeris:
    2023 HJ6                 a,e,i = 1.17, 0.17, 18                  q = 0.9625
    Date    TT    R. A. (2000) Decl.     Delta      r    Elong.  Phase     V
    2023 03 29    15 57 06.7 -22 25 57   0.2726  1.1788   125.9    43.3    22.1
    ...
    2023 04 13    16 49 05.6 -03 51 16   0.1985  1.1370   128.6    43.5    21.4
    ...
    2023 04 21    17 19 31.3 +11 03 37   0.1790  1.1145   123.9    48.4    21.2
    ...
    2023 04 27    17 43 45.0 +23 10 50   0.1757  1.0977   117.2    54.6    21.3
    2023 04 28    17 47 55.3 +25 09 41   0.1761  1.0950   115.9    55.8    21.4
    2023 04 29    17 52 08.1 +27 06 49   0.1767  1.0922   114.6    57.0    21.4
    ...
    2023 05 05    18 18 20.1 +37 57 09   0.1850  1.0758   106.6    63.9    21.7
    ...
    2023 05 13    18 55 57.0 +49 24 30   0.2051  1.0547    96.9    72.0    22.1
    ...
    2023 05 28    20 15 39.1 +62 21 29   0.2545  1.0187    84.0    81.6    22.8
    
    M. P. C. Staff               (C) Copyright 2023 MPC           M.P.E.C. 2023-H226
    


    Read MPEC 2023-H225 Read MPEC 2023-H227


    MPEC number:

    Enter an MPEC number in one of the following forms:

    • 1997-B01 (the full form)
    • J97B01 (the packed version of the full form)
    • B01 (the abbreviated form)